VU36VU-13 Weather Reports


time (UTC)temp
C
wind
direction
speed
KPH
gust
KPH
rain 1hr
cm
rain 24hr
cm
rain mn
cm
humidity
%
barometer
mb
20260509013817 21 69 19.3 49.9 0.00 0.30 0.05 88 1012.0
20260509013617 21 69 19.3 49.9 0.00 0.30 0.05 88 1012.0
20260509013417 21 69 19.3 49.9 0.00 0.30 0.05 88 1012.0
20260509013217 21 69 19.3 49.9 0.00 0.30 0.05 88 1012.0
20260509013020 21 69 19.3 49.9 0.00 0.30 0.05 88 1012.0
20260509012817 21 66 19.3 48.3 0.00 0.30 0.05 91 1012.0
20260509012617 21 66 19.3 48.3 0.00 0.30 0.05 91 1012.0
20260509012418 21 66 19.3 48.3 0.00 0.30 0.05 91 1012.0
20260509012018 21 66 19.3 48.3 0.00 0.30 0.05 91 1012.0
20260509011817 21 66 19.3 48.3 0.00 0.30 0.05 91 1012.0
20260509011617 21 66 19.3 48.3 0.00 0.30 0.05 91 1012.0
20260509011417 21 61 20.9 48.3 0.00 0.30 0.05 93 1011.0
20260509011217 21 61 20.9 48.3 0.00 0.30 0.05 93 1011.0
20260509011018 21 61 20.9 48.3 0.00 0.30 0.05 93 1011.0
20260509010817 21 61 20.9 48.3 0.00 0.30 0.05 93 1011.0
20260509010617 21 61 20.9 48.3 0.00 0.30 0.05 93 1011.0
20260509010417 21 61 20.9 48.3 0.00 0.30 0.05 93 1011.0
20260509010219 21 61 20.9 48.3 0.00 0.30 0.05 93 1011.0
20260509005817 20 58 20.9 48.3 0.00 0.30 0.05 94 1011.0
20260509005617 20 58 20.9 48.3 0.00 0.30 0.05 94 1011.0
20260509005417 20 58 20.9 48.3 0.00 0.30 0.05 94 1011.0
20260509005217 20 58 20.9 48.3 0.00 0.30 0.05 94 1011.0
20260509005018 20 58 20.9 48.3 0.00 0.30 0.05 94 1011.0
20260509004817 20 58 20.9 48.3 0.00 0.30 0.05 94 1011.0
20260509004617 20 58 20.9 48.3 0.00 0.30 0.05 94 1011.0
20260509004417 20 55 20.9 48.3 0.00 0.30 0.05 95 1011.0
20260509004217 20 55 20.9 48.3 0.00 0.30 0.05 95 1011.0
20260509003817 20 55 20.9 48.3 0.00 0.30 0.05 95 1011.0
20260509003617 20 55 20.9 48.3 0.00 0.30 0.05 95 1011.0
20260509003417 20 55 20.9 48.3 0.00 0.30 0.05 95 1011.0
20260509003217 20 55 20.9 48.3 0.00 0.30 0.05 95 1011.0
20260509003020 20 55 20.9 48.3 0.00 0.30 0.05 95 1011.0
20260509002817 20 51 20.9 48.3 0.00 0.30 0.05 95 1011.0
20260509002617 20 51 20.9 48.3 0.00 0.30 0.05 95 1011.0
20260509002417 20 51 20.9 48.3 0.00 0.30 0.05 95 1011.0
20260509002217 20 51 20.9 48.3 0.00 0.30 0.05 95 1011.0
20260509002018 20 51 20.9 48.3 0.00 0.30 0.05 95 1011.0
20260509001617 20 51 20.9 48.3 0.00 0.30 0.05 95 1011.0
20260509001417 20 50 20.9 48.3 0.00 0.30 0.05 95 1011.0
20260509001217 20 50 20.9 48.3 0.00 0.30 0.05 95 1011.0
20260509001018 20 75 16.1 48.3 0.00 0.30 0.05 95 1011.0
20260509000817 20 75 16.1 48.3 0.00 0.30 0.05 95 1011.0
20260509000617 20 77 19.3 48.3 0.00 0.30 0.05 95 1011.0
20260509000418 20 77 19.3 41.8 0.00 0.30 0.05 95 1011.0
20260509000219 20 77 19.3 41.8 0.00 0.30 0.05 95 1011.0
20260509000022 21 78 19.3 40.2 0.00 0.30 0.05 93 1011.0
20260508235617 21 78 19.3 40.2 0.00 0.30 0.05 93 1011.0
20260508235417 21 78 19.3 40.2 0.00 0.30 0.05 93 1011.0
20260508235217 21 78 19.3 40.2 0.00 0.30 0.05 93 1011.0
20260508235018 21 78 19.3 40.2 0.00 0.30 0.05 93 1011.0
20260508234817 21 78 19.3 40.2 0.00 0.30 0.05 93 1010.0
20260508234617 21 78 19.3 40.2 0.00 0.30 0.13 93 1010.0
20260508234417 21 78 17.7 37.0 0.00 0.30 0.13 90 1010.0
20260508234217 21 78 17.7 37.0 0.00 0.30 0.13 90 1010.0
20260508234018 21 78 17.7 37.0 0.00 0.30 0.13 90 1010.0
20260508233617 21 78 17.7 37.0 0.00 0.30 0.13 90 1010.0
20260508233417 21 78 17.7 37.0 0.00 0.30 0.13 90 1010.0
20260508233217 21 78 17.7 37.0 0.00 0.30 0.13 90 1010.0
20260508233021 21 78 17.7 37.0 0.00 0.30 0.13 90 1010.0
20260508232817 21 77 16.1 35.4 0.00 0.30 0.13 89 1010.0
20260508232617 21 77 16.1 35.4 0.00 0.30 0.13 89 1010.0
20260508232417 21 77 16.1 35.4 0.00 0.30 0.13 89 1010.0
20260508232217 21 77 16.1 35.4 0.00 0.30 0.13 89 1010.0
20260508232018 21 77 16.1 35.4 0.00 0.30 0.13 89 1010.0
20260508231818 21 77 16.1 35.4 0.00 0.30 0.13 89 1010.0
20260508231417 21 76 16.1 33.8 0.00 0.30 0.13 89 1010.0
20260508231217 21 76 16.1 33.8 0.00 0.30 0.13 89 1010.0
20260508231018 21 76 16.1 33.8 0.00 0.30 0.13 89 1010.0
20260508230817 21 76 16.1 33.8 0.00 0.30 0.13 89 1010.0
20260508230617 21 76 16.1 33.8 0.00 0.30 0.13 89 1010.0
20260508230417 21 76 16.1 33.8 0.00 0.30 0.13 89 1010.0
20260508230217 21 76 16.1 33.8 0.00 0.30 0.13 89 1010.0
20260508230022 21 74 14.5 33.8 0.00 0.30 0.13 88 1010.0
20260508225818 21 74 14.5 33.8 0.00 0.30 0.13 88 1010.0
20260508225417 21 74 14.5 33.8 0.00 0.30 0.13 88 1010.0
20260508225217 21 74 14.5 33.8 0.00 0.30 0.13 88 1010.0
20260508225018 21 74 14.5 33.8 0.00 0.30 0.13 88 1010.0
20260508224817 21 74 14.5 33.8 0.00 0.30 0.13 88 1010.0
20260508224618 21 74 14.5 33.8 0.00 0.30 0.13 88 1010.0
20260508224417 21 70 12.9 33.8 0.00 0.30 0.13 88 1010.0
20260508224217 21 70 12.9 33.8 0.00 0.30 0.13 88 1010.0
20260508224018 21 70 12.9 33.8 0.00 0.30 0.13 88 1010.0
20260508223817 21 70 12.9 33.8 0.00 0.30 0.13 88 1010.0
20260508223618 21 70 12.9 33.8 0.00 0.30 0.13 88 1010.0
20260508223217 21 70 12.9 33.8 0.00 0.30 0.13 88 1010.0
20260508223022 21 70 12.9 33.8 0.00 0.30 0.13 88 1010.0
20260508222817 21 67 11.3 35.4 0.00 0.30 0.13 88 1010.0
20260508222617 21 67 11.3 35.4 0.00 0.30 0.13 88 1010.0
20260508222417 21 67 11.3 35.4 0.00 0.30 0.13 88 1010.0
20260508222217 21 67 11.3 35.4 0.00 0.30 0.13 88 1010.0
20260508222018 21 67 11.3 35.4 0.00 0.30 0.13 88 1010.0
20260508221818 21 67 11.3 35.4 0.00 0.30 0.13 88 1010.0
20260508221617 21 67 11.3 35.4 0.00 0.30 0.13 88 1010.0
20260508221217 21 69 9.7 37.0 0.00 0.30 0.13 88 1010.0
20260508221018 21 69 9.7 37.0 0.00 0.30 0.13 88 1010.0
20260508220817 21 69 9.7 37.0 0.00 0.30 0.13 88 1010.0
20260508220618 21 69 9.7 37.0 0.00 0.30 0.13 88 1010.0
20260508220417 21 69 9.7 37.0 0.00 0.30 0.13 88 1010.0
20260508220217 21 69 9.7 37.0 0.00 0.30 0.13 88 1010.0
20260508220022 21 81 9.7 40.2 0.00 0.30 0.13 87 1010.0
20260508215817 21 81 9.7 40.2 0.00 0.30 0.13 87 1010.0
20260508215617 21 81 9.7 40.2 0.00 0.30 0.13 87 1010.0
20260508215417 21 81 9.7 40.2 0.00 0.30 0.13 87 1010.0
20260508215018 21 81 9.7 40.2 0.00 0.30 0.13 87 1010.0
20260508214817 21 81 9.7 40.2 0.00 0.30 0.13 87 1010.0
20260508214617 21 81 9.7 40.2 0.00 0.30 0.13 87 1010.0
20260508214417 21 95 11.3 43.5 0.00 0.30 0.13 86 1010.0
20260508214217 21 95 11.3 43.5 0.00 0.30 0.13 86 1010.0
20260508214019 21 95 11.3 43.5 0.00 0.30 0.13 86 1010.0
20260508213817 21 95 11.3 43.5 0.00 0.30 0.13 86 1010.0
20260508213617 21 95 11.3 43.5 0.00 0.30 0.13 86 1010.0
20260508213417 21 95 11.3 43.5 0.00 0.30 0.13 86 1010.0
20260508213218 21 95 11.3 43.5 0.00 0.30 0.13 86 1010.0
20260508212220 21 105 14.5 48.3 0.00 0.30 0.13 86 1010.0
20260508212018 21 105 14.5 48.3 0.00 0.30 0.13 86 1010.0
20260508211817 21 105 14.5 48.3 0.00 0.30 0.13 86 1010.0
20260508211417 21 111 16.1 51.5 0.00 0.30 0.13 85 1010.0
20260508211217 21 111 16.1 51.5 0.00 0.30 0.13 85 1010.0
20260508211018 21 111 16.1 51.5 0.00 0.30 0.13 85 1010.0
20260508210817 21 111 16.1 51.5 0.00 0.30 0.13 85 1010.0
20260508210618 21 111 16.1 51.5 0.00 0.30 0.13 85 1010.0
20260508210417 21 111 16.1 51.5 0.00 0.30 0.13 85 1010.0
20260508210217 21 111 16.1 51.5 0.00 0.30 0.13 85 1010.0
20260508210022 22 111 19.3 54.7 0.00 0.30 0.13 84 1010.0
20260508205817 22 111 19.3 54.7 0.00 0.30 0.13 84 1010.0
20260508205618 22 111 19.3 54.7 0.00 0.30 0.13 84 1010.0
20260508205217 22 111 19.3 54.7 0.00 0.30 0.13 84 1010.0
20260508205018 22 111 19.3 54.7 0.00 0.30 0.13 84 1010.0
20260508204817 22 111 19.3 54.7 0.00 0.30 0.13 84 1010.0
20260508204617 22 111 19.3 54.7 0.00 0.30 0.13 84 1010.0
20260508204417 22 109 20.9 57.9 0.00 0.30 0.13 83 1010.0
20260508204217 22 109 20.9 57.9 0.00 0.30 0.13 83 1010.0
20260508204018 22 109 20.9 57.9 0.00 0.30 0.13 83 1010.0
20260508203817 22 109 20.9 57.9 0.00 0.30 0.13 83 1010.0
20260508203617 22 109 20.9 57.9 0.00 0.30 0.13 83 1010.0
20260508203217 22 109 20.9 57.9 0.00 0.30 0.13 83 1010.0
20260508203022 22 109 20.9 57.9 0.00 0.30 0.13 83 1010.0
20260508202818 22 107 20.9 61.2 0.00 0.30 0.13 82 1011.0
20260508202618 22 107 20.9 61.2 0.00 0.30 0.13 82 1011.0
20260508202417 22 107 20.9 61.2 0.00 0.30 0.13 82 1011.0
20260508202218 22 107 20.9 61.2 0.00 0.30 0.13 82 1011.0
20260508202018 22 107 20.9 61.2 0.00 0.30 0.13 82 1011.0
20260508201817 22 107 20.9 61.2 0.00 0.30 0.13 82 1011.0
20260508201618 22 107 20.9 61.2 0.00 0.30 0.13 82 1011.0
20260508201418 22 105 22.5 62.8 0.00 0.30 0.13 81 1011.0
20260508201019 22 105 22.5 62.8 0.00 0.30 0.13 81 1011.0
20260508200817 22 105 22.5 62.8 0.00 0.30 0.13 81 1011.0
20260508200617 22 105 22.5 62.8 0.00 0.30 0.13 81 1011.0
20260508200418 22 105 22.5 62.8 0.00 0.30 0.13 81 1011.0
20260508200218 22 105 22.5 62.8 0.00 0.30 0.13 81 1011.0
20260508200022 22 106 24.1 66.0 0.00 0.30 0.13 80 1011.0
20260508195817 22 106 24.1 66.0 0.00 0.30 0.13 80 1011.0
20260508195618 22 106 24.1 66.0 0.00 0.30 0.13 80 1011.0
20260508195418 22 106 24.1 66.0 0.00 0.30 0.13 80 1011.0
20260508195018 22 106 24.1 66.0 0.00 0.30 0.13 80 1011.0
20260508194817 22 106 24.1 66.0 0.00 0.30 0.13 80 1011.0
20260508194617 22 106 24.1 66.0 0.00 0.30 0.13 80 1011.0
20260508194417 22 106 25.7 66.0 0.00 0.30 0.13 79 1011.0
20260508194217 22 106 25.7 66.0 0.00 0.30 0.13 79 1011.0
20260508194019 22 106 25.7 66.0 0.00 0.30 0.13 79 1011.0
20260508193817 22 106 25.7 66.0 0.00 0.30 0.13 79 1011.0
20260508193617 22 106 25.7 66.0 0.00 0.30 0.13 79 1011.0
20260508193417 22 106 25.7 66.0 0.00 0.30 0.13 79 1011.0
20260508193022 22 106 25.7 66.0 0.00 0.30 0.13 79 1011.0
20260508192817 22 106 27.4 67.6 0.00 0.30 0.13 78 1011.0
20260508192617 22 106 27.4 67.6 0.00 0.30 0.13 78 1011.0
20260508192417 22 106 27.4 67.6 0.00 0.30 0.13 78 1011.0
20260508192217 22 106 27.4 67.6 0.00 0.30 0.13 78 1011.0
20260508192018 22 106 27.4 67.6 0.00 0.30 0.13 78 1011.0
20260508191817 22 106 27.4 67.6 0.00 0.30 0.13 78 1011.0
20260508191617 22 106 27.4 67.6 0.00 0.30 0.13 78 1011.0
20260508191417 22 107 29.0 69.2 0.00 0.30 0.13 78 1011.0
20260508191218 22 107 29.0 69.2 0.00 0.30 0.13 78 1011.0
20260508190818 22 107 29.0 69.2 0.00 0.30 0.13 78 1011.0
20260508190617 22 107 29.0 69.2 0.00 0.30 0.13 78 1011.0
20260508190417 22 107 29.0 69.2 0.00 0.30 0.13 78 1011.0
20260508190217 22 107 29.0 69.2 0.00 0.30 0.13 78 1011.0
20260508190022 23 103 29.0 70.8 0.00 0.86 0.10 77 1011.0
20260508185817 23 103 29.0 70.8 0.00 0.86 0.10 77 1011.0
20260508185617 23 103 29.0 70.8 0.00 0.86 0.10 77 1011.0
20260508185417 23 103 29.0 70.8 0.00 0.86 0.10 77 1011.0
20260508185217 23 102 32.2 70.8 0.00 0.86 0.10 77 1011.0
20260508185019 23 102 32.2 70.8 0.00 0.86 0.10 77 1011.0
20260508184618 23 102 32.2 70.8 0.00 0.86 0.10 77 1011.0
20260508184417 23 103 32.2 69.2 0.00 0.86 0.10 76 1011.0
20260508184217 23 103 32.2 69.2 0.00 0.86 0.10 76 1011.0
20260508184018 23 103 32.2 69.2 0.00 0.86 0.10 76 1011.0
20260508183817 23 103 32.2 69.2 0.00 0.86 0.10 76 1011.0
20260508183618 23 103 32.2 69.2 0.00 0.86 0.10 76 1011.0
20260508183417 23 103 32.2 69.2 0.00 0.86 0.10 76 1011.0
20260508183217 23 103 32.2 69.2 0.00 0.86 0.10 76 1011.0
20260508183022 23 103 32.2 69.2 0.00 0.86 0.10 76 1011.0
20260508182818 23 104 30.6 67.6 0.00 0.86 0.10 75 1011.0
20260508182417 23 104 30.6 67.6 0.00 0.53 0.10 75 1012.0
20260508182218 23 104 30.6 67.6 0.00 0.53 0.10 78 1012.0
20260508182019 23 104 30.6 67.6 0.00 0.53 0.10 78 1012.0
20260508181818 23 104 30.6 67.6 0.00 0.53 0.10 78 1012.0
20260508181618 23 104 30.6 67.6 0.00 0.53 0.10 78 1012.0
20260508181418 23 106 30.6 66.0 0.00 0.53 0.10 77 1012.0
20260508181217 23 106 30.6 66.0 0.00 0.53 0.10 77 1012.0
20260508181018 23 106 30.6 66.0 0.00 0.53 0.10 77 1012.0
20260508180818 23 106 30.6 66.0 0.00 0.53 0.10 77 1012.0
20260508180418 23 106 30.6 66.0 0.00 0.53 0.10 77 1012.0
20260508180218 23 106 30.6 66.0 0.00 0.53 0.10 77 1012.0
20260508180022 23 107 30.6 66.0 0.00 0.53 0.10 76 1012.0
20260508175818 23 107 30.6 66.0 0.00 0.53 0.10 76 1012.0
20260508175618 23 107 30.6 66.0 0.00 0.53 0.10 76 1012.0
20260508175418 23 107 30.6 66.0 0.00 0.53 0.10 76 1012.0
20260508175218 23 107 30.6 66.0 0.00 0.53 0.10 76 1012.0
20260508175018 23 107 30.6 66.0 0.00 0.53 0.10 76 1012.0
20260508174818 23 107 30.6 66.0 0.00 0.53 0.10 76 1012.0
20260508174418 23 107 30.6 66.0 0.00 0.53 0.10 76 1012.0
20260508174218 23 107 30.6 66.0 0.00 0.53 0.10 76 1012.0
20260508174019 23 107 30.6 66.0 0.00 0.53 0.10 76 1012.0
20260508173818 23 107 30.6 66.0 0.00 0.53 0.10 76 1012.0
20260508173618 23 107 30.6 66.0 0.00 0.53 0.10 76 1012.0
20260508173418 23 107 30.6 66.0 0.00 0.53 0.10 76 1012.0
20260508173218 23 107 30.6 66.0 0.00 0.53 0.10 76 1012.0
20260508173022 23 107 30.6 66.0 0.00 0.53 0.10 76 1012.0
20260508172818 24 107 30.6 67.6 0.00 0.53 0.10 76 1012.0
20260508172618 24 107 30.6 67.6 0.00 0.53 0.10 76 1012.0
20260508172220 24 107 30.6 67.6 0.00 0.53 0.10 76 1012.0
20260508172018 24 107 30.6 67.6 0.00 0.53 0.10 76 1012.0
20260508171819 24 107 30.6 67.6 0.00 0.53 0.10 76 1012.0
20260508171618 24 107 30.6 67.6 0.00 0.53 0.10 76 1012.0
20260508171418 24 107 30.6 66.0 0.00 0.53 0.10 76 1011.0
20260508171221 24 107 30.6 66.0 0.00 0.53 0.10 76 1011.0
20260508171019 24 107 30.6 66.0 0.00 0.53 0.10 76 1011.0
20260508170818 24 107 30.6 66.0 0.00 0.53 0.10 76 1011.0
20260508170622 24 107 30.6 66.0 0.00 0.53 0.10 76 1011.0
20260508170419 24 107 30.6 66.0 0.00 0.53 0.10 76 1011.0
20260508170022 24 107 30.6 62.8 0.00 0.53 0.10 75 1011.0
20260508165818 24 107 30.6 62.8 0.00 0.53 0.10 75 1011.0
20260508165618 24 107 30.6 62.8 0.00 0.53 0.10 75 1011.0
20260508165418 24 107 30.6 62.8 0.00 0.53 0.10 75 1011.0
20260508165218 24 107 30.6 62.8 0.00 0.53 0.10 75 1011.0
20260508165019 24 107 30.6 62.8 0.00 0.53 0.10 75 1011.0
20260508164818 24 107 30.6 62.8 0.00 0.53 0.10 75 1011.0
20260508164618 24 107 30.6 62.8 0.00 0.53 0.10 75 1011.0
20260508164418 24 108 29.0 59.5 0.00 0.53 0.10 75 1011.0
20260508164019 24 108 29.0 59.5 0.00 0.53 0.10 75 1011.0
20260508163818 24 108 29.0 59.5 0.00 0.53 0.10 75 1011.0
20260508163618 24 108 29.0 59.5 0.00 0.53 0.10 75 1011.0
20260508163418 24 108 29.0 59.5 0.00 0.53 0.10 75 1011.0
20260508163218 24 108 29.0 59.5 0.00 0.53 0.10 75 1011.0
20260508163021 24 108 29.0 59.5 0.00 0.53 0.10 75 1011.0
20260508162818 24 107 27.4 54.7 0.00 0.53 0.10 74 1011.0
20260508162618 24 107 27.4 54.7 0.00 0.53 0.10 74 1011.0
20260508162418 24 107 27.4 54.7 0.00 0.53 0.10 74 1011.0
20260508162218 24 107 27.4 54.7 0.00 0.53 0.10 74 1011.0
20260508161818 24 107 27.4 54.7 0.00 0.53 0.10 74 1011.0
20260508161618 24 107 27.4 54.7 0.00 0.53 0.10 74 1011.0
20260508161418 24 108 27.4 54.7 0.00 0.53 0.10 74 1011.0
20260508161218 24 108 27.4 54.7 0.00 0.53 0.10 74 1011.0
20260508161019 24 108 27.4 54.7 0.00 0.53 0.10 74 1011.0
20260508160818 24 108 27.4 54.7 0.00 0.53 0.10 74 1011.0
20260508160618 24 108 27.4 54.7 0.00 0.53 0.10 74 1011.0
20260508160418 24 108 27.4 54.7 0.00 0.53 0.10 74 1011.0
20260508160218 24 108 27.4 54.7 0.00 0.53 0.10 74 1011.0
20260508160023 24 108 25.7 62.8 0.00 0.53 0.10 73 1011.0
20260508155618 24 108 25.7 62.8 0.00 0.53 0.10 73 1011.0
20260508155418 24 108 25.7 62.8 0.00 0.53 0.10 73 1011.0
20260508155218 24 108 25.7 62.8 0.00 0.53 0.10 73 1011.0
20260508155019 24 108 25.7 62.8 0.00 0.53 0.10 73 1011.0
20260508154818 24 108 25.7 62.8 0.00 0.53 0.10 73 1011.0
20260508154618 24 108 25.7 62.8 0.00 0.53 0.10 73 1011.0
20260508154418 24 108 22.5 72.4 0.00 0.53 0.10 73 1011.0
20260508154218 24 108 22.5 72.4 0.00 0.53 0.10 73 1011.0
20260508154022 24 108 22.5 72.4 0.00 0.53 0.10 73 1011.0
20260508153618 24 108 22.5 72.4 0.00 0.53 0.10 73 1011.0
20260508153418 24 108 22.5 72.4 0.00 0.53 0.10 73 1011.0
20260508153218 24 108 22.5 72.4 0.00 0.53 0.10 73 1011.0
20260508153022 24 109 20.9 83.7 0.00 0.53 0.10 73 1011.0
20260508152818 24 109 20.9 83.7 0.00 0.53 0.10 73 1011.0
20260508152618 24 109 20.9 83.7 0.00 0.53 0.10 73 1011.0
20260508152418 24 109 20.9 83.7 0.00 0.53 0.10 73 1011.0
20260508152218 24 109 20.9 83.7 0.00 0.53 0.10 73 1011.0
20260508152019 24 109 20.9 83.7 0.00 0.53 0.10 73 1011.0
20260508151618 24 109 20.9 83.7 0.00 0.53 0.10 73 1011.0
20260508151418 24 109 20.9 91.7 0.00 0.53 0.10 72 1011.0
20260508151218 24 109 20.9 91.7 0.00 0.53 0.10 72 1011.0
20260508151019 24 109 20.9 91.7 0.00 0.53 0.10 72 1011.0
20260508150818 24 109 20.9 91.7 0.00 0.53 0.10 72 1011.0
20260508150618 24 109 20.9 91.7 0.00 0.53 0.10 72 1011.0
20260508150418 24 109 20.9 91.7 0.00 0.53 0.10 72 1011.0
20260508150218 24 109 20.9 91.7 0.00 0.53 0.10 72 1011.0
20260508150022 25 109 25.7 95.0 0.00 0.53 0.10 71 1011.0
20260508145819 25 109 25.7 95.0 0.00 0.53 0.10 71 1011.0
20260508145418 25 109 25.7 95.0 0.00 0.53 0.10 71 1011.0
20260508145218 25 109 25.7 95.0 0.00 0.53 0.10 71 1011.0
20260508145019 25 109 25.7 95.0 0.00 0.53 0.10 71 1011.0
20260508144818 25 109 25.7 95.0 0.00 0.53 0.10 71 1011.0
20260508144618 25 109 25.7 95.0 0.00 0.53 0.10 71 1011.0
20260508144418 25 108 32.2 95.0 0.00 0.53 0.10 70 1011.0
20260508144218 25 108 32.2 95.0 0.00 0.53 0.10 70 1011.0
20260508144019 25 108 32.2 95.0 0.00 0.53 0.10 70 1011.0
20260508143818 25 108 32.2 95.0 0.00 0.53 0.10 70 1011.0
20260508143418 25 108 32.2 95.0 0.00 0.53 0.10 70 1011.0
20260508143218 25 108 32.2 95.0 0.00 0.53 0.10 70 1011.0
20260508143022 25 108 37.0 93.3 0.00 0.53 0.10 69 1010.0
20260508142818 25 108 37.0 93.3 0.00 0.53 0.10 69 1010.0
20260508142618 25 108 37.0 93.3 0.00 0.53 0.10 69 1010.0
20260508142418 25 108 37.0 93.3 0.00 0.53 0.10 69 1010.0
20260508142218 25 108 37.0 93.3 0.00 0.53 0.10 69 1010.0
20260508142019 25 108 37.0 93.3 0.00 0.53 0.10 69 1010.0
20260508141818 25 108 37.0 93.3 0.00 0.53 0.10 69 1010.0
20260508141618 25 108 37.0 93.3 0.00 0.53 0.10 69 1010.0
20260508141218 25 106 40.2 93.3 0.00 0.53 0.10 69 1010.0
20260508141020 25 106 40.2 93.3 0.00 0.53 0.10 69 1010.0
20260508140818 25 106 40.2 93.3 0.00 0.53 0.10 69 1010.0
20260508140618 25 106 40.2 93.3 0.00 0.53 0.10 69 1010.0
20260508140418 25 106 40.2 93.3 0.00 0.53 0.10 69 1010.0
20260508140218 25 106 40.2 93.3 0.00 0.53 0.10 69 1010.0
20260508140022 25 102 37.0 90.1 0.00 0.53 0.10 68 1010.0
20260508135818 25 102 37.0 90.1 0.00 0.53 0.10 68 1010.0
20260508135618 25 102 37.0 90.1 0.00 0.53 0.10 68 1010.0
20260508133218 26 95 32.2 88.5 0.00 0.53 0.10 66 1009.0
20260508133022 26 95 32.2 88.5 0.00 0.53 0.10 66 1009.0
20260508132818 26 86 29.0 85.3 0.00 0.53 0.10 65 1009.0
20260508132618 26 86 29.0 85.3 0.00 0.53 0.10 65 1009.0
20260508132419 26 86 29.0 85.3 0.00 0.53 0.10 65 1009.0
20260508132020 26 86 29.0 85.3 0.00 0.53 0.10 65 1009.0
20260508131818 26 86 29.0 85.3 0.00 0.53 0.10 65 1009.0
20260508131618 26 86 29.0 85.3 0.00 0.53 0.10 65 1009.0
20260508131418 26 77 27.4 88.5 0.00 0.53 0.10 64 1009.0
20260508131218 26 77 27.4 88.5 0.00 0.53 0.10 64 1009.0
20260508131019 26 77 27.4 88.5 0.00 0.53 0.10 64 1009.0
20260508130818 26 77 27.4 88.5 0.00 0.53 0.10 64 1009.0
20260508130618 26 77 27.4 88.5 0.00 0.53 0.10 64 1009.0
20260508130418 26 77 27.4 88.5 0.00 0.53 0.10 64 1009.0
20260508130022 26 73 27.4 96.6 0.00 0.53 0.10 64 1009.0
20260508125818 26 73 27.4 96.6 0.00 0.53 0.10 64 1009.0
20260508125618 26 73 27.4 96.6 0.00 0.53 0.10 64 1009.0
20260508125418 26 73 27.4 96.6 0.00 0.53 0.10 64 1009.0
20260508125218 26 73 27.4 96.6 0.00 0.53 0.10 64 1009.0
20260508125019 26 73 27.4 96.6 0.00 0.53 0.10 64 1009.0
20260508124818 26 73 27.4 96.6 0.00 0.53 0.10 64 1009.0
20260508124618 26 73 27.4 96.6 0.00 0.53 0.10 64 1009.0
20260508124418 26 72 30.6 111.0 0.00 0.53 0.10 64 1008.0
20260508124020 26 72 30.6 111.0 0.00 0.53 0.10 64 1008.0
20260508123832 26 55 35.4 111.0 0.00 0.53 0.10 64 1008.0
20260508123618 26 55 35.4 111.0 0.00 0.53 0.10 64 1008.0
20260508123418 26 55 35.4 111.0 0.00 0.53 0.10 64 1008.0
20260508123218 26 55 35.4 111.0 0.00 0.53 0.10 64 1008.0
20260508123023 26 61 45.1 123.9 0.00 0.53 0.10 64 1008.0
20260508122818 26 61 45.1 123.9 0.00 0.53 0.10 64 1008.0
20260508122618 26 61 45.1 123.9 0.00 0.53 0.10 64 1008.0
20260508122418 26 61 45.1 123.9 0.00 0.53 0.10 64 1008.0
20260508122219 26 61 45.1 123.9 0.00 0.53 0.10 64 1008.0
20260508121818 26 61 45.1 109.4 0.00 0.53 0.10 64 1008.0
20260508121618 26 61 45.1 109.4 0.00 0.53 0.10 64 1008.0
20260508121418 26 60 45.1 111.0 0.00 0.53 0.10 62 1008.0
20260508121218 26 60 45.1 111.0 0.00 0.53 0.10 62 1008.0
20260508121019 26 60 45.1 111.0 0.00 0.53 0.10 62 1008.0
20260508120818 28 60 45.1 111.0 0.00 0.53 0.10 54 1008.0
20260508120618 28 60 45.1 111.0 0.00 0.53 0.10 54 1008.0
20260508120418 28 60 45.1 111.0 0.00 0.53 0.10 54 1008.0
20260508120219 28 60 45.1 111.0 0.00 0.53 0.10 54 1008.0
20260508120023 29 60 41.8 115.9 0.00 0.53 0.10 47 1007.0
20260508115620 29 60 41.8 115.9 0.00 0.53 0.10 47 1007.0
20260508115418 29 60 41.8 115.9 0.00 0.53 0.10 47 1007.0
20260508115218 29 60 41.8 115.9 0.00 0.53 0.10 47 1007.0
20260508115019 29 60 41.8 115.9 0.00 0.53 0.10 47 1007.0
20260508114818 29 60 41.8 115.9 0.00 0.53 0.10 47 1007.0
20260508114618 29 60 41.8 115.9 0.00 0.53 0.10 47 1007.0
20260508114418 30 62 38.6 122.3 0.00 0.53 0.10 45 1006.0
20260508114218 30 62 38.6 122.3 0.00 0.53 0.10 45 1006.0
20260508114019 30 62 38.6 122.3 0.00 0.53 0.10 45 1006.0
20260508113618 30 62 38.6 122.3 0.00 0.53 0.10 45 1006.0
20260508113418 30 62 38.6 122.3 0.00 0.53 0.10 45 1006.0
20260508113218 30 62 38.6 122.3 0.00 0.53 0.10 45 1006.0
20260508113022 30 65 33.8 128.7 0.00 0.53 0.10 44 1006.0
20260508112818 30 65 33.8 128.7 0.00 0.53 0.10 44 1006.0
20260508112618 30 65 33.8 128.7 0.00 0.53 0.10 44 1006.0
20260508112418 30 65 33.8 128.7 0.00 0.53 0.10 44 1006.0
20260508112218 30 65 33.8 128.7 0.00 0.53 0.10 44 1006.0
20260508112019 30 65 33.8 128.7 0.00 0.53 0.10 44 1006.0
20260508111819 30 65 33.8 128.7 0.00 0.53 0.10 44 1006.0
20260508111418 30 69 32.2 133.6 0.00 0.53 0.10 43 1006.0
20260508111218 30 69 32.2 133.6 0.00 0.53 0.10 43 1006.0
20260508111019 30 69 32.2 133.6 0.00 0.53 0.10 43 1006.0
20260508110818 30 69 32.2 133.6 0.00 0.53 0.10 43 1006.0
20260508110618 30 69 32.2 133.6 0.00 0.53 0.10 43 1006.0
20260508110418 30 69 32.2 133.6 0.00 0.53 0.10 43 1006.0
20260508110218 30 69 32.2 133.6 0.00 0.53 0.10 43 1006.0
20260508110022 30 71 37.0 136.8 0.00 0.53 0.10 43 1006.0
20260508105818 30 71 37.0 136.8 0.00 0.53 0.10 43 1006.0
20260508105418 30 71 37.0 136.8 0.00 0.53 0.10 43 1006.0
20260508105218 30 71 37.0 136.8 0.00 0.53 0.10 43 1006.0
20260508105019 30 71 37.0 136.8 0.00 0.53 0.10 43 1006.0
20260508104818 30 71 37.0 136.8 0.00 0.53 0.10 43 1006.0
20260508104618 30 71 37.0 136.8 0.00 0.53 0.10 43 1006.0
20260508104418 30 71 43.5 140.0 0.00 0.53 0.10 44 1006.0
20260508104218 30 71 43.5 140.0 0.00 0.53 0.10 44 1006.0
20260508104020 30 71 43.5 140.0 0.00 0.53 0.10 44 1006.0
20260508103818 30 71 43.5 140.0 0.00 0.53 0.10 44 1006.0
20260508103619 30 71 43.5 140.0 0.00 0.53 0.10 44 1006.0
20260508103218 30 71 43.5 140.0 0.00 0.53 0.10 44 1006.0
20260508103022 30 71 43.5 140.0 0.00 0.53 0.10 44 1006.0
20260508102818 30 72 49.9 141.6 0.00 0.53 0.10 44 1007.0
20260508102618 30 72 49.9 141.6 0.00 0.53 0.10 44 1007.0
20260508102418 30 72 49.9 141.6 0.00 0.53 0.10 44 1007.0
20260508102218 30 72 49.9 141.6 0.00 0.53 0.10 44 1007.0
20260508102019 30 72 49.9 141.6 0.00 0.53 0.10 44 1007.0
20260508101818 30 72 49.9 141.6 0.00 0.53 0.10 44 1007.0
20260508101618 30 72 49.9 141.6 0.00 0.53 0.10 44 1007.0
20260508101218 30 72 53.1 141.6 0.00 0.53 0.10 43 1007.0
20260508101019 30 72 53.1 141.6 0.00 0.53 0.10 43 1007.0
20260508100818 30 72 53.1 141.6 0.00 0.53 0.10 43 1007.0
20260508100618 30 72 53.1 141.6 0.00 0.53 0.10 43 1007.0
20260508100418 30 72 53.1 141.6 0.00 0.53 0.10 43 1007.0
20260508100218 30 72 53.1 141.6 0.00 0.53 0.10 43 1007.0
20260508100023 30 72 53.1 138.4 0.00 0.53 0.10 41 1007.0
20260508095818 30 72 53.1 138.4 0.00 0.53 0.10 41 1007.0
20260508095618 30 72 53.1 138.4 0.00 0.53 0.10 41 1007.0
20260508095419 30 72 53.1 138.4 0.00 0.53 0.10 41 1007.0
20260508095019 30 72 53.1 138.4 0.00 0.53 0.10 41 1007.0
20260508094818 30 72 53.1 138.4 0.00 0.53 0.10 41 1007.0
20260508094618 30 72 53.1 138.4 0.00 0.53 0.10 41 1007.0
20260508094418 31 72 48.3 132.0 0.00 0.53 0.10 37 1007.0
20260508094218 31 72 48.3 132.0 0.00 0.53 0.10 37 1007.0
20260508094019 31 72 48.3 132.0 0.00 0.53 0.10 37 1007.0
20260508093818 31 72 48.3 132.0 0.00 0.53 0.10 37 1007.0
20260508093618 31 72 48.3 132.0 0.00 0.53 0.10 37 1007.0
20260508093418 31 72 48.3 132.0 0.00 0.53 0.10 37 1007.0
20260508093219 31 72 48.3 132.0 0.00 0.53 0.10 37 1007.0
20260508092818 32 71 45.1 127.1 0.00 0.53 0.10 34 1007.0
20260508092618 32 71 45.1 127.1 0.00 0.53 0.10 34 1007.0
20260508092418 32 71 45.1 127.1 0.00 0.53 0.10 34 1007.0
20260508092218 32 71 45.1 127.1 0.00 0.53 0.10 34 1007.0
20260508092019 32 71 45.1 127.1 0.00 0.53 0.10 34 1007.0
20260508091818 32 71 45.1 127.1 0.00 0.53 0.10 34 1007.0
20260508091618 32 71 45.1 127.1 0.00 0.53 0.10 34 1007.0
20260508091418 33 70 41.8 122.3 0.00 0.53 0.10 32 1007.0
20260508091218 33 70 41.8 122.3 0.00 0.53 0.10 32 1007.0
20260508090818 33 70 41.8 122.3 0.00 0.53 0.10 32 1007.0
20260508090618 33 70 41.8 122.3 0.00 0.53 0.10 32 1007.0
20260508090418 33 70 41.8 122.3 0.00 0.53 0.10 32 1007.0
20260508090218 33 70 41.8 122.3 0.00 0.53 0.10 32 1007.0
20260508090023 33 69 41.8 120.7 0.00 0.53 0.10 31 1007.0
20260508085818 33 69 41.8 120.7 0.00 0.53 0.10 31 1007.0
20260508085618 33 69 41.8 120.7 0.00 0.53 0.10 31 1007.0
20260508085418 33 69 41.8 120.7 0.00 0.53 0.10 31 1007.0
20260508085218 33 69 41.8 120.7 0.00 0.53 0.10 31 1007.0
20260508085020 33 69 41.8 120.7 0.00 0.53 0.10 31 1007.0
20260508084618 33 69 41.8 120.7 0.00 0.53 0.10 31 1007.0
20260508084418 33 68 41.8 120.7 0.00 0.53 0.10 31 1007.0
20260508084218 33 68 41.8 120.7 0.00 0.53 0.10 31 1007.0
20260508084019 33 68 41.8 120.7 0.00 0.53 0.10 31 1007.0
20260508083818 33 68 41.8 120.7 0.00 0.53 0.10 31 1007.0
20260508083618 33 68 41.8 120.7 0.00 0.53 0.10 31 1007.0
20260508083418 33 68 41.8 120.7 0.00 0.53 0.10 31 1007.0
20260508083218 33 68 41.8 120.7 0.00 0.53 0.10 31 1007.0
20260508083023 33 66 43.5 122.3 0.00 0.53 0.10 32 1007.0
20260508082819 33 66 43.5 122.3 0.00 0.53 0.10 32 1007.0
20260508082418 33 66 43.5 122.3 0.00 0.53 0.10 32 1007.0
20260508082218 33 66 43.5 122.3 0.00 0.53 0.10 32 1007.0
20260508082019 33 66 43.5 122.3 0.00 0.53 0.10 32 1007.0
20260508081818 33 66 43.5 122.3 0.00 0.53 0.10 32 1007.0
20260508081618 33 66 43.5 122.3 0.00 0.53 0.10 32 1007.0
20260508081418 33 65 43.5 122.3 0.00 0.53 0.10 32 1008.0
20260508081218 33 65 43.5 122.3 0.00 0.53 0.10 32 1008.0
20260508081019 33 65 43.5 122.3 0.00 0.53 0.10 32 1008.0
20260508080818 33 65 43.5 122.3 0.00 0.53 0.10 32 1008.0
20260508080418 33 65 43.5 122.3 0.00 0.53 0.10 32 1008.0
20260508080218 33 65 43.5 122.3 0.00 0.53 0.10 32 1008.0
20260508080023 33 64 43.5 120.7 0.00 0.53 0.10 33 1008.0
20260508075818 33 64 43.5 120.7 0.00 0.53 0.10 33 1008.0
20260508075618 33 64 43.5 120.7 0.00 0.53 0.10 33 1008.0
20260508075418 33 64 43.5 120.7 0.00 0.53 0.10 33 1008.0
20260508075218 33 64 43.5 120.7 0.00 0.53 0.10 33 1008.0
20260508075019 33 64 43.5 120.7 0.00 0.53 0.10 33 1008.0
20260508074818 33 64 43.5 120.7 0.00 0.53 0.10 33 1008.0
20260508074418 32 63 41.8 119.1 0.00 0.53 0.10 33 1008.0
20260508074218 32 63 41.8 119.1 0.00 0.53 0.10 33 1008.0
20260508074019 32 63 41.8 119.1 0.00 0.53 0.10 33 1008.0
20260508073818 32 63 41.8 119.1 0.00 0.53 0.10 33 1008.0
20260508073618 32 63 41.8 119.1 0.00 0.53 0.10 33 1008.0
20260508073418 32 63 41.8 119.1 0.00 0.53 0.10 33 1008.0
20260508073218 32 63 41.8 119.1 0.00 0.53 0.10 33 1008.0
20260508073023 32 61 41.8 117.5 0.00 0.53 0.10 34 1009.0
20260508072818 32 61 41.8 117.5 0.00 0.53 0.10 34 1009.0
20260508072618 32 61 41.8 117.5 0.00 0.53 0.10 34 1009.0
20260508072218 32 61 41.8 117.5 0.00 0.53 0.10 34 1009.0
20260508072020 32 61 41.8 117.5 0.00 0.53 0.10 34 1009.0
20260508071818 32 61 41.8 117.5 0.00 0.53 0.10 34 1009.0
20260508071618 32 61 41.8 117.5 0.00 0.53 0.10 34 1009.0
20260508071418 32 61 40.2 115.9 0.00 0.53 0.10 34 1009.0
20260508071218 32 61 40.2 115.9 0.00 0.53 0.10 34 1009.0
20260508071020 32 61 40.2 115.9 0.00 0.53 0.10 34 1009.0
20260508070821 32 61 40.2 115.9 0.00 0.53 0.10 34 1009.0
20260508070618 32 61 40.2 115.9 0.00 0.53 0.10 34 1009.0
20260508070218 32 61 40.2 115.9 0.00 0.53 0.10 34 1009.0
20260508070023 32 61 38.6 115.9 0.00 0.53 0.10 35 1009.0
20260508065818 32 61 38.6 115.9 0.00 0.53 0.10 35 1009.0
20260508065618 32 61 38.6 115.9 0.00 0.53 0.10 35 1009.0
20260508065418 32 61 38.6 115.9 0.00 0.53 0.10 35 1009.0
20260508065218 32 65 37.0 115.9 0.00 0.53 0.10 35 1009.0
20260508065019 32 65 37.0 115.9 0.00 0.53 0.10 35 1009.0
20260508064818 32 65 37.0 115.9 0.00 0.53 0.10 35 1009.0
20260508064618 32 65 37.0 115.9 0.00 0.53 0.10 35 1009.0
20260508064419 32 63 37.0 112.7 0.00 0.53 0.10 36 1009.0
20260508064019 32 65 40.2 112.7 0.00 0.53 0.10 36 1009.0
20260508063818 32 65 40.2 112.7 0.00 0.53 0.10 36 1009.0
20260508063618 32 65 40.2 112.7 0.00 0.53 0.10 36 1009.0
20260508063418 32 65 40.2 117.5 0.00 0.53 0.10 36 1009.0
20260508063218 32 65 40.2 117.5 0.00 0.53 0.10 36 1009.0
20260508063023 31 66 40.2 119.1 0.00 0.53 0.10 37 1009.0
20260508062818 31 66 40.2 119.1 0.00 0.53 0.10 37 1009.0
20260508062618 31 66 40.2 119.1 0.00 0.53 0.10 37 1009.0
20260508062418 31 66 40.2 119.1 0.00 0.53 0.10 38 1009.0
20260508062019 31 66 40.2 119.1 0.00 0.00 0.15 38 1010.0
20260508061818 31 66 40.2 119.1 0.00 0.00 0.15 42 1010.0
20260508061618 31 66 40.2 119.1 0.00 0.00 0.15 42 1010.0
20260508061418 30 66 40.2 119.1 0.00 0.00 0.15 43 1010.0
20260508061218 30 66 40.2 119.1 0.00 0.00 0.15 43 1010.0
20260508061019 30 66 40.2 119.1 0.00 0.00 0.15 43 1010.0
20260508060818 30 66 40.2 119.1 0.00 0.00 0.15 43 1010.0
20260508060618 30 66 40.2 119.1 0.00 0.00 0.15 43 1010.0
20260508060419 30 66 40.2 119.1 0.00 0.00 0.15 43 1010.0
20260508060219 30 66 40.2 119.1 0.00 0.00 0.15 43 1010.0
20260508055818 30 67 40.2 119.1 0.00 0.00 0.15 44 1011.0
20260508055618 30 67 40.2 119.1 0.00 0.00 0.15 44 1011.0
20260508055418 30 67 40.2 119.1 0.00 0.00 0.15 44 1011.0
20260508055218 30 67 40.2 119.1 0.00 0.00 0.15 44 1011.0
20260508055020 30 67 40.2 119.1 0.00 0.00 0.15 44 1011.0
20260508054818 30 67 40.2 119.1 0.00 0.00 0.15 44 1011.0
20260508054618 30 67 40.2 119.1 0.00 0.00 0.15 44 1011.0
20260508054418 30 69 40.2 119.1 0.00 0.00 0.15 45 1011.0
20260508054218 30 69 40.2 119.1 0.00 0.00 0.15 45 1011.0
20260508053818 30 69 40.2 119.1 0.00 0.00 0.15 45 1011.0
20260508053618 30 69 40.2 119.1 0.00 0.00 0.15 45 1011.0
20260508053418 30 69 40.2 119.1 0.00 0.00 0.15 45 1011.0
20260508053218 30 69 40.2 119.1 0.00 0.00 0.15 45 1011.0
20260508053023 30 71 40.2 119.1 0.00 0.00 0.15 46 1011.0
20260508052818 30 71 40.2 119.1 0.00 0.00 0.15 46 1011.0
20260508052619 30 71 40.2 119.1 0.00 0.00 0.15 46 1011.0
20260508052418 30 71 40.2 119.1 0.00 0.00 0.15 46 1011.0
20260508052218 30 71 40.2 119.1 0.00 0.00 0.15 46 1011.0
20260508052019 30 71 40.2 119.1 0.00 0.00 0.15 46 1011.0
20260508051619 30 71 40.2 119.1 0.00 0.00 0.15 46 1011.0
20260508051419 29 73 38.6 115.9 0.00 0.00 0.15 47 1011.0
20260508051219 29 73 38.6 115.9 0.00 0.00 0.15 47 1011.0
20260508051020 29 73 38.6 115.9 0.00 0.00 0.15 47 1011.0
20260508050819 29 73 38.6 115.9 0.00 0.00 0.15 47 1011.0
20260508050619 29 73 38.6 115.9 0.00 0.00 0.15 47 1011.0
20260508050419 29 73 38.6 115.9 0.00 0.00 0.15 47 1011.0
20260508050219 29 73 38.6 115.9 0.00 0.00 0.15 47 1011.0
20260508050023 28 75 37.0 111.0 0.00 0.00 0.15 49 1011.0
20260508045820 28 75 37.0 111.0 0.00 0.00 0.15 49 1011.0
20260508045419 28 75 37.0 111.0 0.00 0.00 0.15 49 1011.0
20260508045218 28 75 37.0 111.0 0.00 0.00 0.15 49 1011.0
20260508045019 28 75 37.0 111.0 0.00 0.00 0.15 49 1011.0
20260508044818 28 75 37.0 111.0 0.00 0.00 0.15 49 1011.0
20260508044619 28 75 37.0 111.0 0.00 0.00 0.15 49 1011.0
20260508044418 28 74 35.4 104.6 0.00 0.00 0.15 51 1011.0
20260508044219 28 74 35.4 104.6 0.00 0.00 0.15 51 1011.0
20260508044019 28 74 35.4 104.6 0.00 0.00 0.15 51 1011.0
20260508043818 28 74 35.4 104.6 0.00 0.00 0.15 51 1011.0
20260508043418 28 74 35.4 104.6 0.00 0.00 0.15 51 1011.0
20260508043218 28 74 35.4 104.6 0.00 0.00 0.15 51 1011.0
20260508043023 28 74 35.4 104.6 0.00 0.00 0.15 51 1011.0
20260508042818 27 74 32.2 96.6 0.00 0.00 0.15 53 1011.0
20260508042618 27 74 32.2 96.6 0.00 0.00 0.15 53 1011.0
20260508042419 27 74 32.2 96.6 0.00 0.00 0.15 53 1011.0
20260508042218 27 74 32.2 96.6 0.00 0.00 0.15 53 1011.0
20260508042019 27 74 32.2 96.6 0.00 0.00 0.15 53 1011.0
20260508041818 27 74 32.2 96.6 0.00 0.00 0.15 53 1011.0
20260508041619 27 74 32.2 96.6 0.00 0.00 0.15 53 1011.0
20260508041218 27 75 30.6 88.5 0.00 0.00 0.15 56 1011.0
20260508041020 27 75 30.6 88.5 0.00 0.00 0.15 56 1011.0
20260508040818 27 75 30.6 88.5 0.00 0.00 0.15 56 1011.0
20260508040618 27 75 30.6 88.5 0.00 0.00 0.15 56 1011.0
20260508040418 27 75 30.6 88.5 0.00 0.00 0.15 56 1011.0
20260508040218 27 75 30.6 88.5 0.00 0.00 0.15 56 1011.0
20260508040023 27 77 27.4 82.1 0.00 0.00 0.15 59 1012.0
20260508035818 27 77 27.4 82.1 0.00 0.00 0.15 59 1012.0
20260508035618 27 77 27.4 82.1 0.00 0.00 0.15 59 1012.0
20260508035419 27 77 27.4 82.1 0.00 0.00 0.15 59 1012.0
20260508035019 27 77 27.4 82.1 0.00 0.00 0.15 59 1012.0
20260508034818 27 77 27.4 82.1 0.00 0.00 0.15 59 1012.0
20260508034618 27 77 27.4 82.1 0.00 0.00 0.15 59 1012.0
20260508034418 26 78 22.5 74.0 0.00 0.00 0.15 62 1012.0
20260508034218 26 78 22.5 74.0 0.00 0.00 0.15 62 1012.0
20260508034019 26 78 22.5 74.0 0.00 0.00 0.15 62 1012.0
20260508033818 26 78 22.5 74.0 0.00 0.00 0.15 62 1012.0
20260508033618 26 78 22.5 74.0 0.00 0.00 0.15 62 1012.0
20260508033418 26 78 22.5 74.0 0.00 0.00 0.15 62 1012.0
20260508033219 26 78 22.5 74.0 0.00 0.00 0.15 62 1012.0
20260508032819 26 82 19.3 67.6 0.00 0.00 0.15 66 1012.0
20260508032619 26 82 19.3 67.6 0.00 0.00 0.15 66 1012.0
20260508032419 26 82 19.3 67.6 0.00 0.00 0.15 66 1012.0
20260508032219 26 82 19.3 67.6 0.00 0.00 0.15 66 1012.0
20260508032019 26 82 19.3 67.6 0.00 0.00 0.15 66 1012.0
20260508031819 26 82 19.3 67.6 0.00 0.00 0.15 66 1012.0
20260508031619 26 82 19.3 67.6 0.00 0.00 0.15 66 1012.0
20260508031419 25 87 17.7 62.8 0.00 0.00 0.15 70 1012.0
20260508031219 25 87 17.7 62.8 0.00 0.00 0.15 70 1012.0
20260508031021 25 87 17.7 62.8 0.00 0.00 0.15 70 1012.0
20260508030619 25 87 17.7 62.8 0.00 0.00 0.15 70 1012.0
20260508030419 25 87 17.7 62.8 0.00 0.00 0.15 70 1012.0
20260508030219 25 87 17.7 62.8 0.00 0.00 0.15 70 1012.0
20260508030023 25 93 17.7 62.8 0.00 0.00 0.15 73 1012.0
20260508025819 25 93 17.7 62.8 0.00 0.00 0.15 73 1012.0
20260508025619 25 93 17.7 62.8 0.00 0.00 0.15 73 1012.0
20260508025419 25 93 17.7 62.8 0.00 0.00 0.15 73 1012.0
20260508025219 25 93 17.7 62.8 0.00 0.00 0.15 73 1012.0
20260508025020 25 93 17.7 62.8 0.00 0.00 0.15 73 1012.0
20260508024820 25 93 17.7 62.8 0.00 0.00 0.15 73 1012.0
20260508024419 24 99 19.3 62.8 0.00 0.00 0.15 76 1012.0
20260508024218 24 99 19.3 62.8 0.00 0.00 0.15 76 1012.0
20260508024019 24 99 19.3 62.8 0.00 0.00 0.15 76 1012.0
20260508023818 24 99 19.3 62.8 0.00 0.00 0.15 76 1012.0
20260508023619 24 99 19.3 62.8 0.00 0.00 0.15 76 1012.0
20260508023419 24 99 19.3 62.8 0.00 0.00 0.15 76 1012.0
20260508023218 24 99 19.3 62.8 0.00 0.00 0.15 76 1012.0
20260508023022 24 99 19.3 62.8 0.00 0.00 0.15 76 1012.0
20260508022818 23 103 20.9 64.4 0.00 0.00 0.15 79 1012.0
20260508022619 23 103 20.9 64.4 0.00 0.00 0.15 79 1012.0
20260508022218 23 103 20.9 64.4 0.00 0.00 0.15 79 1012.0
20260508022019 23 103 20.9 64.4 0.00 0.00 0.15 79 1012.0
20260508021818 23 103 20.9 64.4 0.00 0.00 0.15 79 1012.0
20260508021619 23 103 20.9 64.4 0.00 0.00 0.15 79 1012.0
20260508021418 23 106 22.5 64.4 0.00 0.00 0.15 82 1012.0
20260508021218 23 106 22.5 64.4 0.00 0.00 0.15 82 1012.0
20260508021020 23 106 22.5 64.4 0.00 0.00 0.15 82 1012.0
20260508020818 23 106 22.5 64.4 0.00 0.00 0.15 82 1012.0
20260508020619 23 106 22.5 64.4 0.00 0.00 0.15 82 1012.0
20260508020219 23 106 22.5 64.4 0.00 0.00 0.15 82 1012.0
20260508020023 23 109 22.5 62.8 0.00 0.00 0.15 84 1012.0
20260508015819 23 109 22.5 62.8 0.00 0.00 0.15 84 1012.0
20260508015619 23 109 22.5 62.8 0.00 0.00 0.15 84 1012.0
20260508015418 23 109 22.5 62.8 0.00 0.00 0.15 84 1012.0
20260508015219 23 109 22.5 62.8 0.00 0.00 0.15 84 1012.0
20260508015019 23 109 22.5 62.8 0.00 0.00 0.15 84 1012.0
20260508014819 23 109 22.5 62.8 0.00 0.00 0.15 84 1012.0
20260508014618 23 109 22.5 62.8 0.00 0.00 0.15 84 1012.0
20260508014419 22 110 22.5 61.2 0.00 0.00 0.15 86 1012.0
20260508014020 22 110 22.5 61.2 0.00 0.00 0.15 86 1012.0